This is the latest recevied weather packets stored in our database for station/object N9BSW. If no packets are shown the sender has not sent any weather packets the latest 10 day(s).
| Time | Temp. | Humidity | Pressure | Rain* | Wind** | Luminosity | Snow |
|---|---|---|---|---|---|---|---|
| 1777597933 | 11.11° C | 63% | 1014.9 hPa | 0 mm | - | 0 W/m² | - |
| 1777597633 | 11.67° C | 62% | 1015 hPa | 0 mm | - | 0 W/m² | - |
| 1777597328 | 11.67° C | 59% | 1014.8 hPa | 0 mm | - | 0 W/m² | - |
| 1777597024 | 12.22° C | 60% | 1014.8 hPa | 0 mm | - | 0 W/m² | - |
| 1777596721 | 12.22° C | 57% | 1014.7 hPa | 0 mm | - | 0 W/m² | - |
| 1777596417 | 12.22° C | 57% | 1014.5 hPa | 0 mm | - | 1 W/m² | - |
| 1777596114 | 12.22° C | 58% | 1014.5 hPa | 0 mm | - | 2 W/m² | - |
| 1777595810 | 12.78° C | 57% | 1014.6 hPa | 0 mm | - | 3 W/m² | - |
| 1777595506 | 12.78° C | 56% | 1014.6 hPa | 0 mm | - | 4 W/m² | - |
| 1777595202 | 12.78° C | 55% | 1014.7 hPa | 0 mm | - | 6 W/m² | - |
| 1777594898 | 13.33° C | 53% | 1014.7 hPa | 0 mm | - | 10 W/m² | - |
| 1777594595 | 13.89° C | 51% | 1014.6 hPa | 0 mm | - | 15 W/m² | - |
| 1777594291 | 13.89° C | 49% | 1014.5 hPa | 0 mm | - | 20 W/m² | - |
| 1777593987 | 13.89° C | 47% | 1014.6 hPa | 0 mm | - | 26 W/m² | - |
| 1777593683 | 14.44° C | 47% | 1014.6 hPa | 0 mm | - | 36 W/m² | - |
| 1777593380 | 13.89° C | 45% | 1014.5 hPa | 0 mm | - | 39 W/m² | - |
| 1777593079 | 14.44° C | 46% | 1014.7 hPa | 0 mm | - | 45 W/m² | - |
| 1777592778 | 14.44° C | 46% | 1014.4 hPa | 0 mm | - | 44 W/m² | - |
| 1777592474 | 14.44° C | 45% | 1014.5 hPa | 0 mm | - | 39 W/m² | - |
| 1777592169 | 15° C | 45% | 1014.4 hPa | 0 mm | - | 48 W/m² | - |
| 1777591866 | 15° C | 45% | 1014.6 hPa | 0 mm | - | 54 W/m² | - |
| 1777591563 | 15° C | 44% | 1014.5 hPa | 0 mm | - | 53 W/m² | - |
| 1777591259 | 15.56° C | 45% | 1014.7 hPa | 0 mm | - | 66 W/m² | - |
| 1777590954 | 15.56° C | 41% | 1014.7 hPa | 0 mm | - | 80 W/m² | - |
| 1777590650 | 15.56° C | 40% | 1014.5 hPa | 0 mm | - | 93 W/m² | - |
* Rain latest hour (hover to see other rain measurements)
** Current wind speed in m/s (hover to see current wind gust speed)